User: anonymous   Login
Location: Unspecified
(0.0000°N, 0.0000°E)
Time: 10:20:57
(UTC+00:00)
Language:

Gonets-D1 - Orbit

View from above orbital plane
View from above orbital plane
View from above satellite
View from above satellite

Ground track
Ground track

The orbit data is extracted from the following two-line orbital elements,

1 24727U 97006C   17080.93220269 +.00000031 +00000-0 +11283-3 0  9995
2 24727 082.6022 240.9326 0001193 133.0626 342.6532 12.62317349925880
Epoch (UTC): 21 March 2017 22:22:22
Eccentricity: 0.0001193
inclination: 82.6022°
perigee height: 1412 km
apogee height: 1414 km
right ascension of ascending node: 240.9326°
argument of perigee: 133.0626°
revolutions per day: 12.62317349
mean anomaly at epoch: 342.6532°
orbit number at epoch: 92588

The dashed part of the orbit path shows where the satellite is in the earth's shadow,  

DLR